TimeEST,TemperatureF,Dew PointF,Humidity,Sea Level PressureIn,VisibilityMPH,Wind Direction,Wind SpeedMPH,Gust SpeedMPH,PrecipitationIn,Events,Conditions,WindDirDegrees,DateUTC
12:53 AM,37.0,33.1,86,30.37,10.0,Calm,Calm,-,N/A,,Clear,0,2012-12-02 05:53:00
1:53 AM,37.0,33.1,86,30.36,10.0,Calm,Calm,-,N/A,,Clear,0,2012-12-02 06:53:00
2:53 AM,35.1,32.0,89,30.36,8.0,Calm,Calm,-,N/A,,Clear,0,2012-12-02 07:53:00
3:53 AM,34.0,30.9,89,30.35,9.0,Calm,Calm,-,N/A,,Clear,0,2012-12-02 08:53:00
4:53 AM,34.0,30.9,89,30.35,7.0,Calm,Calm,-,N/A,,Clear,0,2012-12-02 09:53:00
5:53 AM,34.0,30.9,89,30.36,8.0,Calm,Calm,-,N/A,,Clear,0,2012-12-02 10:53:00
6:53 AM,34.0,30.0,85,30.36,6.0,SW,3.5,-,N/A,,Clear,230,2012-12-02 11:53:00
7:53 AM,35.1,32.0,89,30.37,6.0,Calm,Calm,-,N/A,,Clear,0,2012-12-02 12:53:00
8:53 AM,39.9,36.0,86,30.38,7.0,Calm,Calm,-,N/A,,Partly Cloudy,0,2012-12-02 13:53:00
9:53 AM,44.1,37.9,79,30.37,8.0,SSW,3.5,-,N/A,,Mostly Cloudy,210,2012-12-02 14:53:00
10:53 AM,51.1,42.1,71,30.35,10.0,Calm,Calm,-,N/A,,Scattered Clouds,0,2012-12-02 15:53:00
11:53 AM,60.1,46.0,60,30.31,10.0,SW,6.9,-,N/A,,Clear,220,2012-12-02 16:53:00
12:53 PM,64.9,46.9,52,30.26,10.0,SW,13.8,24.2,N/A,,Clear,220,2012-12-02 17:53:00
1:53 PM,68.0,46.9,47,30.23,10.0,SW,16.1,28.8,N/A,,Clear,220,2012-12-02 18:53:00
2:53 PM,69.1,46.9,45,30.21,10.0,SW,16.1,26.5,N/A,,Clear,220,2012-12-02 19:53:00
3:53 PM,68.0,46.9,47,30.21,10.0,SW,10.4,19.6,N/A,,Clear,230,2012-12-02 20:53:00
4:53 PM,66.0,46.9,50,30.20,10.0,SW,9.2,-,N/A,,Clear,220,2012-12-02 21:53:00
5:53 PM,62.1,46.9,58,30.22,10.0,SSW,3.5,-,N/A,,Clear,200,2012-12-02 22:53:00
6:53 PM,61.0,46.9,60,30.23,10.0,SSW,4.6,-,N/A,,Clear,200,2012-12-02 23:53:00
7:53 PM,59.0,46.9,64,30.23,10.0,SSW,4.6,-,N/A,,Clear,210,2012-12-03 00:53:00
8:53 PM,57.0,48.0,72,30.23,10.0,SSW,5.8,-,N/A,,Clear,210,2012-12-03 01:53:00
9:53 PM,57.9,48.9,72,30.22,10.0,SW,8.1,-,N/A,,Overcast,220,2012-12-03 02:53:00
10:53 PM,59.0,50.0,72,30.23,10.0,SW,8.1,-,N/A,,Overcast,220,2012-12-03 03:53:00
11:53 PM,59.0,50.0,72,30.23,10.0,SW,9.2,-,0.00,Rain,Light Rain,230,2012-12-03 04:53:00